{"data":{"norad_id":62453,"intl_designator":"2024-251X","name":"STARLINK-32690","alt_names":[],"object_type":"PAYLOAD","status":"ACTIVE","operator":null,"country":"US","launch_date":"2024-12-29","launch_site_code":"AFWTR","launch_vehicle":null,"mission":null,"orbit_class":"UNKNOWN","rcs_meters":null,"size_class":null,"mass_kg":null,"dimensions":null,"purposes":["comms"],"wikipedia_slug":null,"has_3d_model":false,"image_url":null,"decayed_at":null,"tle_current":{"epoch":"2026-09-21T20:47:15.619200Z","epoch_age_seconds":56494,"freshness":"FRESH","line1":"1 62453U 24251X   26264.86615300  .00020119  00000+0  60496-3 0  9993","line2":"2 62453  53.1584 141.2618 0001351 109.9003 250.2146 15.34400605 97647","mean_motion":15.34400605,"eccentricity":0.0001351,"inclination_deg":53.1584,"raan_deg":141.2618,"arg_perigee_deg":109.9003,"mean_anomaly_deg":250.2146,"bstar":0.00060496,"rev_number":9764,"period_min":93.84772107803,"perigee_km":461.77724474668,"apogee_km":463.62563929372,"semimajor_km":6840.8384420202,"source":"CELESTRAK","updated_at":"2026-09-22T09:00:49.584239Z"}}}